FALCON 9 DEB (48037 NORAD) Tracking and Keplerian Element Data

This shows tracking and keplerian element data for the satellite.

Feedback or suggestion? Click here.




ElementValue
Catalog48037
NameFALCON 9 DEB
Epoch Orbit559
Epoch Day110.01321879
Epoch Year2021
RAAN66.1056
Inclination53.0358
Eccentricity0.0004014
Argument of Perigee251.4096
Mean Anonmoly108.6519
Mean Motion16.5132891
Decay Rate0.1418597
L11 48037U 21024BN 21110.01321879 .14185970 12656-4 12888-3 0 9996
L22 48037 53.0358 66.1056 0004014 251.4096 108.6519 16.51328910 5593



Live tracking and technical data element details for FALCON 9 DEB (NORAD 48037). FALCON 9 DEB can be tracked NOW for your location showing map with azimuth and elevation plus other details from your city location.







IsCatalogInMostPopularTable: catalog: 48037, numindb: 101
Update: records affected: 1



GetName: 48037 FALCON 9 DEB

Hit Count: updated at: Sun, 11 Jun 2023 00:08:57 GMT